GW2639 Weather Reports


Display with metric or nautical units.
time (UTC)temp
F
wind
direction
speed
MPH
gust
MPH
rain 1hr
in
rain 24hr
in
rain mn
in
humidity
%
barometer
mb
20260510153045 76 235 3.0 9.0 0.00 0.00 0.00 48 1014.9
20260510151550 74 293 4.0 13.0 0.00 0.00 0.00 49 1015.1
20260510150051 74 209 4.0 12.0 0.00 0.00 0.00 51 1015.2
20260510144546 73 245 1.0 4.0 0.00 0.00 0.00 57 1015.3
20260510143049 70 74 2.0 4.0 0.00 0.00 0.00 67 1015.3
20260510141541 67 64 1.0 4.0 0.00 0.00 0.00 71 1015.3
20260510140039 64 49 2.0 4.0 0.00 0.00 0.00 74 1015.1
20260510134547 62 58 1.0 5.0 0.00 0.00 0.00 78 1015.2
20260510133041 60 68 3.0 7.0 0.00 0.00 0.00 82 1015.3
20260510131540 58 95 3.0 6.0 0.00 0.00 0.00 86 1015.4
20260510130041 56 112 2.0 6.0 0.00 0.00 0.00 89 1015.5
20260510124550 55 90 1.0 3.0 0.00 0.00 0.00 91 1015.8
20260510123046 52 232 1.0 4.0 0.00 0.00 0.00 92 1015.6
20260510121541 51 0 0.0 3.0 0.00 0.00 0.00 93 1015.6
20260510120040 50 237 1.0 3.0 0.00 0.00 0.00 93 1015.6
20260510114540 50 0 0.0 4.0 0.00 0.00 0.00 93 1015.4
20260510113041 50 189 0.0 4.0 0.00 0.00 0.00 93 1015.1
20260510111551 49 222 2.0 4.0 0.00 0.00 0.00 93 1014.8
20260510110041 48 216 2.0 5.0 0.00 0.00 0.00 93 1014.7
20260510104548 48 0 0.0 5.0 0.00 0.00 0.00 92 1014.7
20260510103047 48 214 2.0 5.0 0.00 0.00 0.00 92 1014.5
20260510101539 48 206 2.0 5.0 0.00 0.00 0.00 93 1014.3
20260510100047 48 222 1.0 5.0 0.00 0.00 0.00 92 1014.0
20260510094542 48 218 2.0 4.0 0.00 0.00 0.00 92 1013.9
20260510093052 48 224 2.0 6.0 0.00 0.00 0.00 92 1013.8
20260510091540 48 229 1.0 5.0 0.00 0.00 0.00 92 1013.7
20260510090043 48 208 3.0 5.0 0.00 0.00 0.00 92 1013.6
20260510084551 48 226 3.0 5.0 0.00 0.00 0.00 92 1013.5
20260510083047 48 172 3.0 5.0 0.00 0.00 0.00 92 1013.3
20260510081600 49 219 2.0 6.0 0.00 0.00 0.00 92 1013.4
20260510080039 49 214 1.0 4.0 0.00 0.00 0.00 92 1013.4
20260510074540 49 218 2.0 4.0 0.00 0.00 0.00 92 1013.3
20260510073055 49 237 2.0 3.0 0.00 0.00 0.00 92 1013.1
20260510071543 49 215 2.0 4.0 0.00 0.00 0.00 91 1013.1
20260510070042 49 224 2.0 4.0 0.00 0.00 0.00 91 1013.0
20260510064552 49 227 1.0 4.0 0.00 0.00 0.00 91 1013.0
20260510063043 50 235 1.0 6.0 0.00 0.00 0.00 91 1013.0
20260510061545 50 235 1.0 4.0 0.00 0.00 0.00 91 1013.0
20260510060048 50 246 2.0 5.0 0.00 0.00 0.00 91 1013.1
20260510054540 50 219 0.0 4.0 0.00 0.00 0.00 90 1013.2
20260510053046 51 229 2.0 3.0 0.00 0.00 0.00 90 1013.1
20260510051545 51 0 0.0 5.0 0.00 0.00 0.00 90 1013.1
20260510050046 51 235 1.0 7.0 0.00 0.00 0.00 90 1013.3
20260510044554 52 233 2.0 5.0 0.00 0.00 0.00 90 1013.3
20260510043050 52 0 0.0 4.0 0.00 0.00 0.00 89 1013.4
20260510041538 53 219 1.0 4.0 0.00 0.00 0.00 89 1013.2
20260510040046 53 222 1.0 4.0 0.00 0.00 0.00 88 1013.1
20260510034544 53 239 2.0 5.0 0.00 0.00 0.00 88 1013.3
20260510033056 54 233 2.0 5.0 0.00 0.00 0.00 87 1013.2
20260510031540 54 247 2.0 4.0 0.00 0.00 0.00 87 1012.8
20260510030106 55 276 3.0 5.0 0.00 0.00 0.00 87 1012.7
20260510024545 55 235 2.0 4.0 0.00 0.00 0.00 86 1012.4
20260510023039 56 234 3.0 5.0 0.00 0.00 0.00 85 1012.2
20260510021539 56 224 1.0 4.0 0.00 0.00 0.00 84 1011.9
20260510020039 57 221 3.0 5.0 0.00 0.00 0.00 83 1011.9
20260510014550 57 228 2.0 4.0 0.00 0.00 0.00 82 1011.7
20260510013041 58 218 2.0 6.0 0.00 0.00 0.00 80 1011.4
20260510011540 59 236 4.0 10.0 0.00 0.00 0.00 77 1011.2
20260510010039 60 222 4.0 9.0 0.00 0.00 0.00 76 1011.0
20260510004541 61 224 4.0 6.0 0.00 0.00 0.00 75 1010.8
20260510003048 62 237 4.0 7.0 0.00 0.00 0.00 74 1010.6
20260510001540 62 247 3.0 5.0 0.00 0.00 0.00 73 1010.5
20260510000046 63 235 2.0 5.0 0.00 0.00 0.00 72 1010.3
20260509234555 65 216 2.0 5.0 0.00 0.00 0.00 69 1010.3
20260509233048 67 245 0.0 4.0 0.00 0.00 0.00 63 1010.1
20260509231540 69 254 0.0 6.0 0.00 0.00 0.00 58 1010.2
20260509230048 70 251 1.0 7.0 0.00 0.00 0.00 54 1010.1
20260509224546 71 257 3.0 10.0 0.00 0.00 0.00 53 1010.0
20260509223045 71 310 4.0 9.0 0.00 0.00 0.00 52 1010.0
20260509221544 71 272 1.0 12.0 0.00 0.00 0.00 53 1010.2
20260509220047 71 321 3.0 13.0 0.00 0.00 0.00 51 1010.2
20260509214548 71 253 3.0 11.0 0.00 0.00 0.00 52 1010.2
20260509213043 71 303 3.0 10.0 0.00 0.00 0.00 52 1010.2
20260509211541 72 251 3.0 10.0 0.00 0.00 0.00 51 1010.2
20260509210040 71 245 1.0 6.0 0.00 0.00 0.00 53 1010.2
20260509204546 71 172 1.0 8.0 0.00 0.00 0.00 52 1010.2
20260509203043 71 257 1.0 6.0 0.00 0.00 0.00 53 1010.0
20260509201554 71 231 3.0 7.0 0.00 0.00 0.00 51 1009.9
20260509200051 71 193 2.0 10.0 0.00 0.00 0.00 51 1009.9
20260509194539 71 225 3.0 9.0 0.00 0.00 0.00 50 1010.0
20260509193108 71 251 2.0 8.0 0.00 0.00 0.00 51 1009.9
20260509191546 72 279 3.0 9.0 0.00 0.00 0.00 49 1009.9
20260509190046 71 0 1.0 8.0 0.00 0.00 0.00 49 1010.0
20260509184545 72 255 3.0 8.0 0.00 0.00 0.00 49 1009.9
20260509183039 71 251 4.0 13.0 0.00 0.00 0.00 52 1009.9
20260509181545 69 284 1.0 10.0 0.00 0.00 0.00 52 1010.0
20260509180047 70 325 3.0 9.0 0.00 0.00 0.00 51 1010.0
20260509174545 70 349 2.0 9.0 0.00 0.00 0.00 51 1010.1
20260509173044 69 239 2.0 7.0 0.00 0.00 0.00 53 1010.3
20260509171545 68 185 1.0 7.0 0.00 0.00 0.00 53 1010.4
20260509170047 68 252 5.0 12.0 0.00 0.00 0.00 53 1010.6
20260509164546 68 156 1.0 8.0 0.00 0.00 0.00 54 1010.7
20260509163046 67 291 3.0 10.0 0.00 0.00 0.00 56 1010.8
20260509161540 66 310 3.0 8.0 0.00 0.00 0.00 57 1010.6
20260509160040 66 235 2.0 7.0 0.00 0.00 0.00 59 1010.6
20260509154545 66 295 2.0 6.0 0.00 0.00 0.00 56 1010.3